Weather History for Hastings, NE

Change the Weather History Date:

Wednesday, May 9, 2012

  Actual Average Record
Temperature  
Mean Temperature 56 °F 59 °F  
Max Temperature 73 °F 70 °F 96 °F (1911)
Min Temperature 39 °F 48 °F 31 °F (1923)
Degree Days  
Heating Degree Days 9 7  
Month to date heating degree days 30 74  
Since 1 July heating degree days 5061 5913  
Cooling Degree Days 0 1  
Month to date cooling degree days 33 7  
Year to date cooling degree days 74 12  
Growing Degree Days 6 (Base 50)    
Moisture  
Dew Point 40 °F    
Average Humidity 59    
Maximum Humidity 86    
Minimum Humidity 31    
Precipitation  
Precipitation 0.00 in 0.14 in 1.60 in (1979)
Month to date precipitation 1.22 1.41  
Year to date precipitation 6.84 6.66  
Snow  
Snow 0.00 in 0.00 in - ()
Month to date snowfall 0.0 0.0  
Since 1 July snowfall 22.5 28.8  
Snow Depth 0.00 in    
Sea Level Pressure  
Sea Level Pressure 30.04 in    
Wind  
Wind Speed 6 mph (SSE)    
Max Wind Speed 13 mph    
Max Gust Speed 16 mph    
Visibility 10 miles    
Events      
T = Trace of Precipitation, MM = Missing Value Source: NWS Daily Summary

Daily Weather History Graph

Daily Weather History Graph

Search for Another Location

Airport:

Trip Planner

Search our weather history database for the weather conditions in past years. The results will help you decide how hot, cold, wet, or windy it might be!

Date:

Astronomy

May. 09, 2012 Rise Set
Actual Time 6:22 AM CDT 8:38 PM CDT
Civil Twilight 5:52 AM CDT 9:08 PM CDT
Nautical Twilight 5:14 AM CDT 9:46 PM CDT
Astronomical Twilight 4:33 AM CDT 10:28 PM CDT
Moon No Moon Rise 9:39 AM CDT (5/9)
Length of Visible Light 15h 16m
Length of Day
14h 15m
Waning Gibbous, 82% of the Moon is Illuminated
May 9
Waning Gibbous
May 12
Last Quarter
May 20
New
May 28
First Quarter
Jun 4
Full

Hourly Weather History & Observations

Time (CDT) Temp. Windchill Dew Point Humidity Pressure Visibility Wind Dir Wind Speed Gust Speed Precip Events Conditions
12:53 AM 46.0 °F 44.8 °F 37.9 °F 73% 30.12 in 10.0 mi ENE 3.5 mph - N/A   Clear
1:53 AM 44.1 °F 41.5 °F 37.0 °F 76% 30.12 in 10.0 mi North 4.6 mph - N/A   Clear
2:53 AM 45.0 °F - 37.0 °F 74% 30.12 in 10.0 mi Calm Calm - N/A   Clear
3:53 AM 42.1 °F 39.2 °F 37.0 °F 82% 30.12 in 10.0 mi West 4.6 mph - N/A   Clear
4:53 AM 41.0 °F 39.0 °F 37.0 °F 86% 30.13 in 10.0 mi West 3.5 mph - N/A   Clear
5:53 AM 39.9 °F 37.8 °F 36.0 °F 86% 30.13 in 10.0 mi WNW 3.5 mph - N/A   Clear
6:53 AM 39.9 °F - 36.0 °F 86% 30.14 in 10.0 mi Calm Calm - N/A   Clear
7:53 AM 46.9 °F - 39.9 °F 77% 30.13 in 10.0 mi Calm Calm - N/A   Clear
8:53 AM 53.1 °F - 41.0 °F 64% 30.13 in 10.0 mi Variable 3.5 mph - N/A   Clear
9:53 AM 55.0 °F - 39.9 °F 57% 30.14 in 10.0 mi ENE 4.6 mph - N/A   Clear
10:53 AM 57.9 °F - 41.0 °F 53% 30.13 in 10.0 mi East 4.6 mph - N/A   Clear
11:53 AM 60.1 °F - 41.0 °F 49% 30.12 in 10.0 mi Variable 3.5 mph - N/A   Clear
12:53 PM 63.0 °F - 42.1 °F 46% 30.09 in 10.0 mi ESE 5.8 mph - N/A   Clear
1:53 PM 64.9 °F - 39.9 °F 40% 30.06 in 10.0 mi Variable 4.6 mph - N/A   Clear
2:53 PM 68.0 °F - 42.1 °F 39% 30.03 in 10.0 mi Variable 4.6 mph - N/A   Clear
3:53 PM 70.0 °F - 39.9 °F 33% 29.99 in 10.0 mi SW 8.1 mph - N/A   Clear
4:53 PM 72.0 °F - 41.0 °F 33% 29.96 in 10.0 mi South 9.2 mph - N/A   Clear
5:53 PM 72.0 °F - 39.9 °F 31% 29.93 in 10.0 mi South 8.1 mph - N/A   Clear
6:53 PM 72.0 °F - 39.0 °F 30% 29.92 in 10.0 mi South 8.1 mph - N/A   Clear
7:53 PM 69.1 °F - 42.1 °F 38% 29.91 in 10.0 mi South 5.8 mph - N/A   Clear
8:53 PM 66.0 °F - 42.1 °F 42% 29.89 in 10.0 mi SSE 9.2 mph - N/A   Clear
9:53 PM 64.0 °F - 41.0 °F 43% 29.89 in 10.0 mi SSE 8.1 mph - N/A   Clear
10:53 PM 62.1 °F - 42.1 °F 48% 29.89 in 10.0 mi SSE 6.9 mph - N/A   Clear
11:53 PM 60.1 °F - 42.1 °F 51% 29.88 in 10.0 mi SSE 10.4 mph - N/A   Clear